Flag for U.S.A. Weather past 2 weeks in Stamford, Connecticut, U.S.A.

Now
17 °F

Clear.


Feels Like: 10 °F
Forecast: 17 / 33 °F
Wind: 5 mph from West

Location: Westchester County Airport

Current Time: Feb 1, 2015 at 3:17:25 AM

Latest Report: Feb 1, 2015 at 2:56 AM


Visibility: 10 mi

Pressure: 30.18 "Hg

Humidity: 62%

Dew point: 6 °F

Location of StamfordLocation

Historic Weather in Stamford — Graph

°F

Stamford temperature yesterday

Maximum temperature yesterday: 23 °F (at 3:56 PM)
Minimum temperature yesterday: 9 °F (at 6:56 AM)
Average temperature yesterday: 16 °F

Past Weeks' High & Low Weather Summary

 TemperatureHumidityPressure
High42 °F (Jan 18, 3:56 PM)100% (Jan 24, 4:04 AM)30.41 "Hg (Jan 24, 4:04 AM)
Low9 °F (Jan 31, 6:56 AM)26% (Jan 17, 2:56 PM)29.27 "Hg (Jan 24, 3:56 PM)
Average27 °F63%29.98 "Hg
* Reported Jan 17 1:56 AM — Feb 1 1:56 AM, Stamford, Weather by CustomWeather, © 2014

Note: Actual official high and low records may vary slightly from our data, if they occured in-between our weather recording intervals... More about our weather records

Advertising

Stamford weather history for previous 24 hours

 ConditionsComfort  
Time TempWeatherWind HumidityBarometerVisibility
1:56 AM
Feb 1
17 °FClear.9 mph62%30.18 "Hg10 mi
12:56 AM17 °FClear.8 mph62%30.17 "Hg10 mi
11:56 PM
Jan 31
17 °FClear.5 mph59%30.18 "Hg10 mi
10:56 PM17 °FClear.6 mph56%30.19 "Hg10 mi
9:56 PM17 °FClear.7 mph54%30.19 "Hg10 mi
8:56 PM18 °FClear.14 mph52%30.18 "Hg10 mi
7:56 PM19 °FClear.10 mph49%30.18 "Hg10 mi
6:56 PM20 °FClear.23 mph43%30.16 "Hg10 mi
5:56 PM21 °FClear.10 mph40%30.12 "Hg10 mi
4:56 PM22 °FSunny.24 mph36%30.11 "Hg10 mi
3:56 PM23 °FSunny.20 mph33%30.09 "Hg10 mi
2:56 PM22 °FSunny.24 mph38%30.07 "Hg10 mi
1:56 PM22 °FSunny.23 mph38%30.06 "Hg10 mi
12:56 PM20 °FSunny.22 mph41%30.07 "Hg10 mi
11:56 AM18 °FSunny.17 mph41%30.09 "Hg10 mi
10:56 AM16 °FSunny.22 mph43%30.11 "Hg10 mi
9:56 AM14 °FSunny.16 mph42%30.10 "Hg10 mi
8:56 AM11 °FSunny.25 mph44%30.08 "Hg10 mi
7:56 AM10 °FSunny.22 mph45%30.06 "Hg10 mi
6:56 AM9 °FClear.23 mph47%30.06 "Hg10 mi
5:56 AM10 °FClear.22 mph45%30.05 "Hg10 mi
4:56 AM11 °FClear.25 mph46%30.03 "Hg10 mi
3:56 AM13 °FClear.24 mph46%30.02 "Hg10 mi
Weather by CustomWeather, © 2014

See weather overviewHow to use our weather pages